EW7376 Weather Reports


time (UTC)temp
C
wind
direction
speed
KPH
gust
KPH
rain 1hr
cm
rain 24hr
cm
rain mn
cm
humidity
%
barometer
mb
20260509211544 30 116 0.0 0.0 0.00 0.00 0.00 41 1007.7
20260509210038 30 123 0.0 0.0 0.00 0.00 0.00 43 1007.9
20260509204530 30 208 0.0 0.0 0.00 0.00 0.00 42 1008.1
20260509203031 30 58 0.0 0.0 0.00 0.00 0.00 44 1008.2
20260509201516 30 99 0.0 0.0 0.00 0.00 0.00 43 1008.4
20260509200013 29 92 0.0 0.0 0.00 0.00 0.00 43 1008.5
20260509194520 29 184 0.0 0.0 0.00 0.00 0.00 43 1008.7
20260509193010 29 296 0.0 0.0 0.00 0.00 0.00 42 1008.8
20260509191508 28 5 0.0 0.0 0.00 0.00 0.00 45 1009.0
20260509190006 28 274 0.0 0.0 0.00 0.00 0.00 43 1009.1
20260509184502 28 132 0.0 0.0 0.00 0.00 0.00 45 1009.2
20260509183110 28 270 0.0 0.0 0.00 0.00 0.00 47 1009.4
20260509181548 28 317 0.0 0.0 0.00 0.00 0.00 52 1009.6
20260509180041 27 113 0.0 0.0 0.00 0.00 0.00 57 1009.9
20260509174537 27 106 0.0 0.0 0.00 0.00 0.00 59 1010.2
20260509173036 26 267 0.0 0.0 0.00 0.00 0.00 63 1010.1
20260509171533 27 261 0.0 0.0 0.00 0.00 0.00 64 1010.4
20260509170030 26 5 0.0 0.0 0.00 0.00 0.00 62 1010.6
20260509164526 26 57 0.0 0.0 0.00 0.00 0.00 66 1010.8
20260509163029 25 269 0.0 0.0 0.00 0.00 0.00 69 1011.0
20260509161501 25 290 0.0 0.0 0.00 0.00 0.00 71 1011.0
20260509160100 24 270 0.0 0.0 0.00 0.00 0.00 74 1011.0
20260509154547 24 287 0.0 0.0 0.00 0.00 0.00 76 1010.8
20260509153043 24 230 0.0 0.0 0.00 0.00 0.00 75 1010.7
20260509151539 23 162 0.0 0.0 0.00 0.00 0.00 79 1010.7
20260509150036 23 141 0.0 0.0 0.00 0.00 0.00 81 1010.8
20260509144532 22 184 0.0 0.0 0.00 0.00 0.00 84 1010.8
20260509143029 22 147 0.0 0.0 0.00 0.00 0.00 86 1010.8
20260509141537 21 108 0.0 0.0 0.00 0.00 0.00 88 1010.9
20260509140021 21 94 0.0 0.0 0.00 0.00 0.00 91 1011.0
20260509134505 20 169 0.0 0.0 0.00 0.00 0.00 93 1011.0
20260509133002 19 170 0.0 0.0 0.00 0.00 0.00 95 1011.0
20260509131505 18 170 0.0 0.0 0.00 0.00 0.00 95 1011.0
20260509130107 18 289 0.0 0.0 0.00 0.00 0.00 95 1010.8
20260509124603 17 299 0.0 0.0 0.00 0.00 0.00 95 1010.6
20260509123101 17 300 0.0 0.0 0.00 0.00 0.00 95 1010.3
20260509121559 17 308 0.0 0.0 0.00 0.00 0.00 95 1009.9
20260509120057 17 308 0.0 0.0 0.00 0.00 0.00 94 1009.6
20260509114557 17 308 0.0 0.0 0.00 0.00 0.00 94 1009.4
20260509113103 16 308 0.0 0.0 0.00 0.00 0.00 94 1009.3
20260509111548 16 308 0.0 0.0 0.00 0.00 0.00 94 1008.9
20260509110044 16 308 0.0 0.0 0.00 0.00 0.00 94 1008.9
20260509104554 17 308 0.0 0.0 0.00 0.00 0.00 94 1009.0
20260509103052 17 308 0.0 0.0 0.00 0.00 0.00 94 1008.8
20260509101543 17 308 0.0 0.0 0.00 0.00 0.00 93 1008.9
20260509100059 17 311 0.0 0.0 0.00 0.00 0.00 93 1008.8
20260509094548 17 311 0.0 0.0 0.00 0.00 0.00 93 1008.8
20260509093032 17 311 0.0 0.0 0.00 0.00 0.00 93 1008.9
20260509091534 17 311 0.0 0.0 0.00 0.00 0.00 92 1008.9
20260509090029 18 313 0.0 0.0 0.00 0.00 0.00 92 1009.0
20260509084528 18 311 0.0 0.0 0.00 0.00 0.00 92 1009.1
20260509083038 18 309 0.0 0.0 0.00 0.00 0.00 92 1009.1
20260509081528 18 309 0.0 0.0 0.00 0.00 0.00 91 1009.2
20260509080023 18 311 0.0 0.0 0.00 0.00 0.00 91 1009.4
20260509074524 18 304 0.0 0.0 0.00 0.00 0.00 91 1009.7
20260509073014 18 313 0.0 0.0 0.00 0.00 0.00 91 1009.7
20260509071511 18 338 0.0 0.0 0.00 0.00 0.00 89 1009.6
20260509070010 19 142 0.0 0.0 0.00 0.00 0.00 89 1009.6
20260509064520 19 142 0.0 0.0 0.00 0.00 0.00 88 1009.2
20260509063009 20 142 0.0 0.0 0.00 0.00 0.00 88 1009.1
20260509061522 20 142 0.0 0.0 0.00 0.00 0.00 87 1009.2
20260509060008 20 141 0.0 0.0 0.00 0.00 0.00 87 1009.2
20260509054508 20 141 0.0 0.0 0.00 0.00 0.00 86 1009.1
20260509053101 20 141 0.0 0.0 0.00 0.00 0.00 85 1009.7
20260509051557 21 141 0.0 0.0 0.00 0.00 0.00 84 1009.4
20260509050056 21 141 0.0 0.0 0.00 0.00 0.00 83 1009.3
20260509044558 21 141 0.0 0.0 0.00 0.00 0.00 83 1009.3
20260509043100 21 189 0.0 0.0 0.00 0.00 0.00 83 1009.2
20260509041554 21 188 0.0 0.0 0.00 0.00 0.00 83 1009.0
20260509040057 21 137 0.0 0.0 0.00 0.00 0.00 83 1009.2
20260509034601 21 130 0.0 0.0 0.00 0.00 0.00 82 1009.3
20260509033035 21 157 0.0 0.0 0.00 0.00 0.00 81 1009.4
20260509031535 22 103 0.0 0.0 0.00 0.00 0.00 79 1008.2
20260509030024 22 99 0.0 0.0 0.00 0.00 0.00 78 1010.0
20260509024525 22 99 0.0 0.0 0.00 0.00 0.00 77 1009.5
20260509023022 22 109 0.0 0.0 0.00 0.00 0.00 77 1008.9
20260509021521 22 107 0.0 0.0 0.00 0.00 0.00 77 1009.0
20260509020023 22 96 0.0 0.0 0.00 0.00 0.00 76 1008.5
20260509014521 23 78 0.0 0.0 0.00 0.00 0.00 75 1007.8
20260509013019 23 101 0.0 0.0 0.00 0.00 0.00 73 1007.6
20260509011518 23 145 0.0 0.0 0.00 0.00 0.00 73 1007.5
20260509010006 23 137 0.0 0.0 0.00 0.00 0.00 72 1006.8
20260509004510 24 119 0.0 0.0 0.00 0.00 0.00 71 1006.8
20260509003006 24 117 0.0 0.0 0.00 0.00 0.00 69 1006.7
20260509001503 25 120 0.0 0.0 0.00 0.00 0.00 67 1006.5
20260509000002 25 138 0.0 0.0 0.00 0.00 0.00 67 1006.5
20260508234601 26 123 0.0 0.0 0.00 0.00 0.00 65 1006.5
20260508233107 26 130 0.0 0.0 0.00 0.00 0.00 63 1006.5
20260508231634 26 137 0.0 0.0 0.00 0.00 0.00 62 1006.8
20260508230057 26 106 0.0 0.0 0.00 0.00 0.00 62 1006.5
20260508224542 26 144 0.0 0.0 0.00 0.00 0.00 63 1006.6
20260508223043 26 123 0.0 0.0 0.00 0.00 0.00 63 1007.0
20260508221537 26 169 0.0 0.0 0.00 0.00 0.00 60 1007.2
20260508220038 26 157 0.0 0.0 0.00 0.00 0.00 59 1007.2
20260508214535 26 164 0.0 0.0 0.00 0.00 0.00 59 1007.3